Airfield :
LOGIN :

Register | Disclaimer

   EN    FR    IT 

 










Legend :    VFR   Marginal VFR   IFR   Intensive IFR   Very Intensive IFR
Visi :
Ceiling :
>= 8 km
>= 3000ft
5 to 8 km
1000 to 3000 ft
1500m to 5 km
500 to 1000 ft
800 to 1500m
200 to 500 ft
< 800m
< 200 ft
Symbols :   Thunderstorms  Fog  Heavy snow  Heavy precipitations  Wind > 20 kt
SIGMETs :     Misc.  Thunderstorms  Icing  Turbulence  Mountain Waves  Volcanic Ashes







- Airport Elevation : 187 ft


LPMR - Monte Real Air Base

CURRENT METAR :
  • 250600Z 32003KT 8000 OVC008 18/17 Q1016

EXPIRED METARs :
  • 250500Z 33003KT 290V360 8000 OVC007 118/16 Q1016
  • 250400Z 30003KT 270V350 8000 OVC007 18/17 Q1015

TAF TAF LPMR
Valid from the 25 at 06:00 until the 26 at 06:00 UTC


250501Z 2506/2606 VRB02KT 8000 BKN008
PROB40 2506/2508 2000 BR BKN004
BECMG 2507/2509 33008KT 9999 SCT008 BKN012
BECMG 2511/2514 FEW012 BKN020
TEMPO 2518/2606 SCT020
No reported NOTAMs for that airfield.



MET'MAP, your aeronautical weather chart ! - Copyright ORBIFLY December 2007 - Disclaimer

ORBIFLY MET'MAP TEAM :

Programming & Development : Alexandra Zaïnal
Concept & Development : Baudouin d'Aumeries
Co-Development & Prog : Marc-Olivier Méhu
Technical & hardware support : Manuel Goepfert

Contact : metmap@orbifly.com




SOURCES & CREDITS :

   NOAA